P/2017 S8 ( PanSTARRS )

Japanese version
Home page
Updated on January 22, 2018

---------------------------------------------------------------------

* Profile

Discovery Date September 30, 2017
Magnitude 20.2 mag
Discoverer Pan-STARRS 1 telescope (Haleakala)

* Pictures

* Orbital Elements

Epoch 2018 Feb. 11.0 TT = JDT 2458160.5
T 2018 Jan. 28.63202 TT                                 MPCW
q   1.6832693            (2000.0)            P               Q
n   0.21310198     Peri.  254.54868     +0.08973912     -0.99074119
a   2.7759463      Node   191.80733     +0.99160143     +0.07931235
e   0.3936232      Incl.   29.85969     -0.09313157     -0.11018823
P   4.63
From 146 observations 2017 Sept. 25-Nov. 23, mean residual 0".6.

* Magnitudes Graph

        m1 = 16.0 + 5 log d + 10.0 log r

---------------------------------------------------------------------

The orbital elements are published on M.P.E.C. 2017-X08.
The magnitudes graphs are made with Comet for Windows.

---------------------------------------------------------------------

Copyright(C) Seiichi Yoshida (comet@aerith.net). All rights reserved.